Погода в Исламе

Узбекистан     40˚22′38″N   70˚47′35″E
темп.,
°C
ветер,
м/с
пор.,
м/с
влажн.,
%
обл.,
%
осадки,
мм/ч
давл.,
гПа
погр.,
м
16 января, сб
сб1623:00+5˚всв23620 0.0 101922
02:00+4˚всв23620 0.0 101923
05:00+4˚всв23590 0.0 101923
08:00+3˚всв33620 0.0 102030
11:00+8˚всв34460 0.0 1019266
14:00+11˚всв34340 0.0 1018427
17:00+9˚в22380 0.0 101823
20:00+7˚в22430 0.0 102022
17 января, вс
вс1723:00+6˚всв23460 0.0 102022
02:00+4˚всв22550 0.0 102022
05:00+3˚всв22590 0.0 101922
08:00+2˚всв22560 0.0 101922
11:00+7˚всв343330 0.0 1016284
14:00+10˚всв2325100 0.0 1013408
17:00+7˚всв233290 0.0 101134
20:00+5˚в223876 0.0 101222
18 января, пн
пн1823:00+4˚св224569 0.0 101122
02:00+3˚всв2247100 0.0 101122
05:00+3˚всв2350100 0.0 101124
08:00+2˚всв2251100 0.0 101324
11:00+7˚всв3436100 0.0 1013268
14:00+9˚всв232998 0.0 1012366
17:00+7˚ссв223299 0.0 101425
20:00+6˚юв0138100 0.0 101622
19 января, вт
вт1923:00+6˚всв3436100 0.0 101763
02:00+4˚св2343100 0.0 101829
05:00+3˚вюв1249100 0.0 101722
08:00+3˚всв1250100 0.0 101922
11:00+8˚всв2336100 0.0 1018225
14:00+11˚в333099 0.0 1018362
17:00+8˚всв233699 0.0 101934
20:00+7˚вюв1139100 0.0 102222
20 января, ср
ср2023:00+7˚ююв1139100 0.0 102322
02:00+7˚ссв224296 0.1 102422
05:00+4˚всв345048 0.1 102545
08:00+3˚в34630 0.0 102664
11:00+8˚в355722 0.0 1022422
14:00+11˚всв3551100 0.0 1018584
17:00+10˚ююв225687 0.0 101828
20:00+7˚ююз335939 0.0 102037